Вернуться в каталог

STARLINK-32291

АктивенСвязьVLEO
NORAD 62442·PAYLOAD·🇺🇸 United States

Запущен Dec 29, 2024 с Vandenberg Space Force Base

Loading…

Ближайшие Пролёты (ближайшие 24 часа)

TLE

СвежийSource: CelesTrak SupGP

Эпоха: Sep 14, 2026, 21:28 UTC

1 62442C 24251L   26257.89493056 -.00027921  00000+0 -82470-3 0  2571
2 62442  53.1589 175.8297 0001322  88.7792 340.4008 15.34413126    19

Отслеживайте STARLINK-32291 в реальном времени с AllMySat

Download on the App Store